Regional Weather Roundup
Issued by NWS Northern Indiana

Home | Current Version | Previous Version | Text Only | Print | Product List | Glossary On
Versions: 1 2 3 4 5 6 7 8 9 10 11 12 13 14 15 16 17 18 19 20 21 22 23 24 25 26 27 28 29 30 31 32 33 34 35 36 37 38 39 40 41 42 43 44 45 46 47 48 49 50
000
ASUS43 KIWX 300210
RWRIWX

KIWX WEATHER ROUNDUP
NATIONAL WEATHER SERVICE NORTHERN INDIANA
1000 PM EDT FRI AUG 29 2014

NOTE: "FAIR" INDICATES FEW OR NO CLOUDS BELOW 12,000 FEET WITH NO
SIGNIFICANT WEATHER AND/OR OBSTRUCTIONS TO VISIBILITY.

* THESE STATIONS ARE NOT UNDER NWS QUALITY CONTROL. THEY ALSO MAY NOT
  REPORT WEATHER SUCH AS PRECIPITATION OR FOG.

INZ001>027-300300-
NORTHERN INDIANA

CITY           SKY/WX    TMP DP  RH WIND       PRES   REMARKS
GARY*          MOCLDY    73  70  88 SE7       29.91S
VALPARAISO     CLOUDY    71  68  90 S9        29.95R
MICHIGAN CITY* HVY RAIN  73  72  94 SW21G30   29.96R
LAPORTE*       TSTM      73  71  93 W13       29.96R
KNOX*          CLOUDY    74  69  82 S21G33    29.98R
SOUTH BEND     CLOUDY    77  70  79 SE10      29.96R
GOSHEN         MOCLDY    76  69  79 SE8       29.98R
MONTICELLO*    CLOUDY    70  68  93 CALM      29.94F
LOGANSPORT*    CLOUDY    77  68  73 S5        29.97R
ROCHESTER*     CLOUDY    79  72  78 SE8       29.97R
WARSAW*        MOCLDY    73  68  83 SE7       29.99R
ANGOLA*        CLEAR     75  66  73 SE6       30.00S
FORT WAYNE     MOCLDY    74  67  78 SE9       30.00R
HUNTINGTON*    PTCLDY    75  68  78 SE8       29.99R
PERU/GRISSOM   MOCLDY    77  74  92 SE9       29.97R
MARION*        MOCLDY    74  67  78 SE7       30.00R

$$
INZ028>050-300300-
CENTRAL INDIANA

CITY           SKY/WX    TMP DP  RH WIND       PRES   REMARKS
LAFAYETTE      MOCLDY    71  69  93 E6        29.94R
KOKOMO*        CLOUDY    75  70  83 SE7       29.98R
MUNCIE*        CLEAR     78  66  66 SE9       29.99F
INDIANAPOLIS   NOT AVBL

$$
MIZ043>046-050>051-056>058-064>065-071>073-077>080-300300-
SOUTHWEST LOWER MICHIGAN

CITY           SKY/WX    TMP DP  RH WIND       PRES   REMARKS
BATTLE CREEK   MOCLDY    75  66  73 SE6       29.99R
BENTON HARBOR  MOCLDY    74  70  87 SE10      29.93S
COLDWATER*     PTCLDY    76  67  74 SE6       29.99S
HILLSDALE*     PTCLDY    73  67  80 SE6       30.02S
HOLLAND        CLOUDY    76  70  82 SE6       29.93F
GRAND RAPIDS   CLOUDY    73  73 100 SE8       29.96S
KALAMAZOO      MOCLDY    74  68  81 SE6       29.98R
STURGIS*       PTCLDY    73  68  83 SE7       29.98S
THREE RIVERS*  FAIR      75  68  80 SE6       29.98R

$$
OHZ001>008-015>018-024>025-300300-
NORTHWEST OHIO

CITY           SKY/WX    TMP DP  RH WIND       PRES   REMARKS
WAUSEON*       FAIR      70  66  88 SE6       30.02S
DEFIANCE       CLEAR     77  65  66 SE5       30.01S
FINDLAY        CLEAR     74  63  68 SE8       30.03S
TOLEDO EXPRESS PTCLDY    72  63  73 E3        30.02S
TOLEDO METCALF CLEAR     69  62  78 E8        30.03F
LIMA           CLEAR     74  64  71 E6        30.03S

$$
&&



USA.gov is the U.S. government's official web portal to all federal, state and local government web resources and services.